Home > Weather > Gibraltar > Past weeks

Flag for Gibraltar Past Weather in Gibraltar, Gibraltar — Yesterday and Last 2 Weeks

Now
79 °F

Passing clouds.


Feels Like: 81 °F
Forecast: 73 / 79 °F
Wind: 16 mph from East

Location: Gibraltar Airport

Current Time: Aug 24, 2016 at 2:23:48 PM

Latest Report: Aug 24, 2016 at 1:50 PM


Visibility: N/A

Pressure: 30.04 "Hg

Humidity: 74%

Dew Point: 70 °F

Location of GibraltarLocation

Past Weather in Gibraltar — Graph

°F

Gibraltar Temperature Yesterday

Maximum temperature yesterday: 79 °F (at 1:50 PM)
Minimum temperature yesterday: 72 °F (at 12:50 AM)
Average temperature yesterday: 74 °F

High & Low Weather Summary for the Past Weeks

 TemperatureHumidityPressure
High90 °F (Aug 18, 4:50 PM)100% (Aug 22, 7:50 AM)30.18 "Hg (Aug 22, 7:50 AM)
Low72 °F (Aug 17, 5:50 AM)35% (Aug 18, 6:50 PM)29.83 "Hg (Aug 18, 6:50 PM)
Average77 °F76%30.04 "Hg
* Reported Aug 9 12:50 PM — Aug 24 12:50 PM, Gibraltar, Weather by CustomWeather, © 2016

Note: Actual official high and low records may vary slightly from our data, if they occured in-between our weather recording intervals... More about our weather records

Advertising

Gibraltar Weather History for the Previous 24 Hours

Scroll right to see more
 ConditionsComfort  
Time TempWeatherWind HumidityBarometerVisibility
12:50 PM
Wed, Aug 24
77 °FPassing clouds.17 mph79%30.07 "HgN/A
11:50 AM77 °FPassing clouds.16 mph74%30.07 "HgN/A
10:50 AM75 °FPassing clouds.16 mph83%30.07 "HgN/A
9:50 AM75 °FPassing clouds.16 mph83%30.07 "HgN/A
8:50 AM73 °FPassing clouds.20 mph89%30.07 "HgN/A
7:50 AM73 °FPassing clouds.16 mph83%30.07 "HgN/A
6:50 AM72 °FPassing clouds.16 mph88%30.04 "HgN/A
5:50 AM72 °FPassing clouds.18 mph94%30.07 "HgN/A
4:50 AM72 °FPassing clouds.18 mph94%30.04 "HgN/A
3:50 AM73 °FPassing clouds.18 mph89%30.07 "Hg5 mi
2:50 AM72 °FPassing clouds.18 mph94%30.07 "Hg5 mi
1:50 AM73 °FPassing clouds.20 mph89%30.07 "Hg5 mi
12:50 AM73 °FPassing clouds.20 mph89%30.09 "HgN/A
11:50 PM
Tue, Aug 23
73 °FPassing clouds.20 mph89%30.09 "HgN/A
10:50 PM73 °FClear.18 mph89%30.09 "HgN/A
9:50 PM73 °FPassing clouds.15 mph89%30.09 "HgN/A
8:50 PM73 °FPassing clouds.16 mph89%30.07 "HgN/A
7:50 PM75 °FPassing clouds.20 mph83%30.07 "HgN/A
6:50 PM77 °FPassing clouds.15 mph74%30.07 "HgN/A
5:50 PM77 °FPassing clouds.16 mph79%30.09 "HgN/A
4:50 PM77 °FPassing clouds.16 mph79%30.09 "HgN/A
3:50 PM77 °FPassing clouds.16 mph79%30.12 "HgN/A
2:50 PM77 °FPassing clouds.16 mph79%30.12 "HgN/A
Weather by CustomWeather, © 2016

See weather overviewHow to use our weather pages